Caldwell, NJ

2:06 AM EST on November 22, 2017 (GMT -0500)
Essex County

Weather History for KCDW - January, 2013

Change the Weather History Date:

Thursday, January 31, 2013

  Actual Average Record
Temperature  
Mean Temperature 46 °F -  
Max Temperature 63 °F 37 °F 63 °F (2013)
Min Temperature 28 °F 19 °F 0 °F (1965)
Degree Days  
Heating Degree Days 20    
Moisture  
Dew Point 34 °F    
Average Humidity 63    
Maximum Humidity 94    
Minimum Humidity 31    
Precipitation  
Precipitation 1.02 in - - ()
Sea Level Pressure  
Sea Level Pressure 29.37 in    
Wind  
Wind Speed 14 mph (WSW)    
Max Wind Speed 25 mph    
Max Gust Speed 50 mph    
Visibility 8 miles    
Events Rain    
Averages and records for this station are not official NWS values.
T = Trace of Precipitation, MM = Missing Value Source: NWS Daily Summary

Daily Weather History Graph

Daily Weather History Graph

Search for Another Location

Airport or City:

Trip Planner

Search our weather history database for the weather conditions in past years. The results will help you decide how hot, cold, wet, or windy it might be!

Date:

Astronomy

Jan. 31, 2013 Rise Set
Actual Time 7:08 AM EST 5:13 PM EST
Civil Twilight 6:39 AM EST 5:42 PM EST
Nautical Twilight 6:06 AM EST 6:15 PM EST
Astronomical Twilight 5:34 AM EST 6:47 PM EST
Moon 10:15 PM EST (1/31) 9:04 AM EST (1/31)
Length of Visible Light 11h 03m
Length of Day
10h 05m
Waning Gibbous, 80% of the Moon is Illuminated
Jan 31
Waning Gibbous
Feb 3
Last Quarter
Feb 10
New
Feb 17
First Quarter
Feb 25
Full

Hourly Weather History & Observations

Time (EST) Temp. Windchill Dew Point Humidity Pressure Visibility Wind Dir Wind Speed Gust Speed Precip Events Conditions
12:09 AM 60.8 °F - 57.2 °F 88% 29.33 in 2.5 mi SSW 9.2 mph 18.4 mph 0.03 in Rain Rain
12:23 AM 60.8 °F - 57.2 °F 88% 29.31 in 4.0 mi SSW 9.2 mph - 0.05 in Rain Rain
12:53 AM 60.1 °F - 57.9 °F 93% 29.30 in 4.0 mi SSW 13.8 mph 21.9 mph 0.14 in Rain Rain
1:10 AM 60.8 °F - 57.2 °F 88% 29.25 in 5.0 mi SSW 12.7 mph 26.5 mph 0.04 in Rain Light Rain
1:53 AM 62.1 °F - 57.9 °F 86% 29.18 in 9.0 mi South 18.4 mph 32.2 mph 0.09 in Rain Light Rain
2:53 AM 63.0 °F - 57.9 °F 84% 29.11 in 5.0 mi South 24.2 mph 49.5 mph 0.05 in Rain Light Rain
3:53 AM 60.1 °F - 57.9 °F 93% 29.14 in 0.8 mi WSW 18.4 mph 39.1 mph 0.50 in Rain Heavy Rain
3:55 AM 59.0 °F - 57.2 °F 94% 29.12 in 0.8 mi SW 16.1 mph 39.1 mph 0.02 in Rain Heavy Rain
4:03 AM 60.8 °F - 57.2 °F 88% 29.12 in 2.0 mi SW 11.5 mph 32.2 mph 0.05 in Rain Rain
4:05 AM 60.8 °F - 57.2 °F 88% 29.12 in 4.0 mi WSW 12.7 mph 25.3 mph 0.05 in Rain Rain
4:53 AM 59.0 °F - 54.0 °F 83% 29.12 in 10.0 mi SW 12.7 mph 20.7 mph 0.10 in Rain Light Rain
5:53 AM 57.0 °F - 54.0 °F 89% 29.07 in 10.0 mi Variable 5.8 mph - 0.03 in Rain Light Rain
6:07 AM 57.2 °F - 53.6 °F 88% 29.06 in 2.0 mi West 11.5 mph 18.4 mph 0.07 in Rain Rain
6:16 AM 55.4 °F - 53.6 °F 94% 29.08 in 3.0 mi SW 8.1 mph - 0.08 in Rain Light Rain
6:41 AM 51.8 °F - 44.6 °F 76% 29.14 in 10.0 mi WNW 19.6 mph 36.8 mph 0.11 in   Overcast
6:53 AM 51.1 °F - 37.9 °F 61% 29.18 in 10.0 mi West 18.4 mph 36.8 mph 0.11 in Rain Light Rain
7:53 AM 46.9 °F - 28.0 °F 48% 29.23 in 10.0 mi West 16.1 mph 39.1 mph 0.00 in   Overcast
8:53 AM 44.1 °F 35.4 °F 25.0 °F 47% 29.33 in 10.0 mi West 21.9 mph 40.3 mph N/A   Scattered Clouds
9:53 AM 43.0 °F 36.4 °F 21.9 °F 43% 29.39 in 10.0 mi West 12.7 mph 34.5 mph N/A   Mostly Cloudy
10:53 AM 42.1 °F 32.1 °F 19.9 °F 41% 29.42 in 10.0 mi WNW 25.3 mph 34.5 mph N/A   Scattered Clouds
11:53 AM 43.0 °F 33.8 °F 17.1 °F 35% 29.43 in 10.0 mi WNW 23.0 mph 40.3 mph N/A   Partly Cloudy
12:53 PM 44.1 °F 37.1 °F 18.0 °F 35% 29.45 in 10.0 mi West 15.0 mph 31.1 mph N/A   Scattered Clouds
1:53 PM 43.0 °F 34.2 °F 17.1 °F 35% 29.48 in 10.0 mi WNW 20.7 mph 33.4 mph N/A   Clear
2:53 PM 42.1 °F 34.2 °F 17.1 °F 37% 29.52 in 10.0 mi WSW 16.1 mph 29.9 mph N/A   Overcast
3:53 PM 41.0 °F 32.2 °F 12.0 °F 31% 29.57 in 10.0 mi West 18.4 mph 31.1 mph N/A   Mostly Cloudy
4:53 PM 36.0 °F 24.7 °F 15.1 °F 43% 29.62 in 10.0 mi West 21.9 mph 32.2 mph N/A   Scattered Clouds
5:53 PM 34.0 °F 23.0 °F 12.0 °F 40% 29.68 in 10.0 mi West 18.4 mph 29.9 mph N/A   Partly Cloudy
6:53 PM 33.1 °F 25.5 °F 12.0 °F 42% 29.71 in 10.0 mi West 9.2 mph 18.4 mph N/A   Partly Cloudy
7:53 PM 32.0 °F 23.6 °F 14.0 °F 48% 29.74 in 10.0 mi West 10.4 mph 19.6 mph N/A   Partly Cloudy
8:53 PM 30.9 °F 22.2 °F 10.9 °F 43% 29.76 in 10.0 mi West 10.4 mph 29.9 mph N/A   Clear
9:53 PM 30.0 °F 20.0 °F 8.1 °F 40% 29.78 in 10.0 mi West 12.7 mph 34.5 mph N/A   Clear
10:53 PM 28.9 °F 19.2 °F 7.0 °F 40% 29.80 in 10.0 mi West 11.5 mph 21.9 mph N/A   Clear
11:53 PM 28.9 °F 20.4 °F 5.0 °F 36% 29.81 in 10.0 mi West 9.2 mph 21.9 mph N/A   Partly Cloudy